TimeCDT,TemperatureF,Dew PointF,Humidity,Sea Level PressureIn,VisibilityMPH,Wind Direction,Wind SpeedMPH,Gust SpeedMPH,PrecipitationIn,Events,Conditions,WindDirDegrees,DateUTC
12:15 AM,55.4,51.8,88,29.79,10.0,WSW,13.8,-,N/A,,Mostly Cloudy,250,2013-10-05 05:15:00
12:35 AM,53.6,48.2,82,29.80,10.0,WSW,16.1,-,N/A,,Mostly Cloudy,250,2013-10-05 05:35:00
12:55 AM,53.6,46.4,77,29.80,10.0,WSW,13.8,-,N/A,,Scattered Clouds,250,2013-10-05 05:55:00
1:15 AM,51.8,46.4,82,29.79,10.0,WSW,12.7,18.4,N/A,,Partly Cloudy,250,2013-10-05 06:15:00
1:35 AM,50.0,46.4,87,29.81,10.0,SW,13.8,-,N/A,,Clear,230,2013-10-05 06:35:00
1:55 AM,50.0,44.6,82,29.83,10.0,WSW,15.0,-,N/A,,Partly Cloudy,240,2013-10-05 06:55:00
2:15 AM,48.2,42.8,82,29.84,10.0,SW,15.0,-,N/A,,Clear,230,2013-10-05 07:15:00
2:35 AM,48.2,42.8,82,29.84,10.0,WSW,10.4,-,N/A,,Clear,240,2013-10-05 07:35:00
2:55 AM,46.4,42.8,87,29.84,10.0,SW,11.5,-,N/A,,Clear,230,2013-10-05 07:55:00
3:15 AM,46.4,41.0,81,29.84,10.0,WSW,17.3,24.2,N/A,,Clear,240,2013-10-05 08:15:00
3:35 AM,44.6,37.4,76,29.83,10.0,WSW,13.8,19.6,N/A,,Clear,240,2013-10-05 08:35:00
3:55 AM,44.6,37.4,76,29.83,10.0,SW,13.8,-,N/A,,Clear,220,2013-10-05 08:55:00
4:15 AM,42.8,37.4,81,29.83,10.0,SW,15.0,-,N/A,,Clear,230,2013-10-05 09:15:00
4:35 AM,42.8,35.6,76,29.83,10.0,WSW,16.1,21.9,N/A,,Partly Cloudy,240,2013-10-05 09:35:00
4:55 AM,42.8,35.6,76,29.83,10.0,WSW,15.0,-,N/A,,Clear,240,2013-10-05 09:55:00
5:15 AM,41.0,35.6,81,29.82,10.0,WSW,13.8,-,N/A,,Clear,240,2013-10-05 10:15:00
5:35 AM,41.0,35.6,81,29.82,10.0,SW,11.5,-,N/A,,Clear,230,2013-10-05 10:35:00
5:55 AM,41.0,33.8,76,29.82,10.0,SW,15.0,-,N/A,,Clear,230,2013-10-05 10:55:00
6:15 AM,39.2,33.8,81,29.82,10.0,SW,15.0,-,N/A,,Clear,230,2013-10-05 11:15:00
6:35 AM,39.2,33.8,81,29.82,10.0,SW,16.1,21.9,N/A,,Clear,230,2013-10-05 11:35:00
6:55 AM,39.2,33.8,81,29.82,10.0,SW,16.1,24.2,N/A,,Clear,230,2013-10-05 11:55:00
7:15 AM,39.2,33.8,81,29.82,10.0,SW,12.7,20.7,N/A,,Clear,220,2013-10-05 12:15:00
7:35 AM,39.2,33.8,81,29.82,10.0,SW,15.0,21.9,N/A,,Clear,230,2013-10-05 12:35:00
7:55 AM,39.2,33.8,81,29.82,10.0,SW,16.1,21.9,N/A,,Clear,230,2013-10-05 12:55:00
8:15 AM,-9999,-9999,N/A,29.82,10.0,North,-9999.0,-,N/A,,Unknown,0,2013-10-05 13:15:00
8:35 AM,41.0,33.8,76,29.82,10.0,SW,16.1,25.3,N/A,,Unknown,220,2013-10-05 13:35:00
8:55 AM,42.8,33.8,70,29.83,10.0,SW,20.7,-,N/A,,Clear,220,2013-10-05 13:55:00
9:15 AM,42.8,32.0,66,29.82,10.0,SW,20.7,26.5,N/A,,Clear,230,2013-10-05 14:15:00
9:35 AM,44.6,32.0,61,29.82,10.0,SW,20.7,27.6,N/A,,Clear,230,2013-10-05 14:35:00
9:55 AM,44.6,32.0,61,29.82,10.0,SW,17.3,27.6,N/A,,Clear,230,2013-10-05 14:55:00
10:15 AM,46.4,32.0,57,29.82,10.0,SW,15.0,25.3,N/A,,Clear,230,2013-10-05 15:15:00
10:35 AM,46.4,32.0,57,29.83,10.0,SW,19.6,27.6,N/A,,Clear,220,2013-10-05 15:35:00
10:55 AM,48.2,33.8,58,29.83,10.0,SW,19.6,25.3,N/A,,Clear,220,2013-10-05 15:55:00
11:15 AM,48.2,33.8,58,29.83,10.0,SSW,18.4,26.5,N/A,,Clear,210,2013-10-05 16:15:00
11:35 AM,48.2,33.8,58,29.82,10.0,SSW,17.3,24.2,N/A,,Clear,200,2013-10-05 16:35:00
11:55 AM,50.0,33.8,54,29.81,10.0,SW,20.7,-,N/A,,Clear,220,2013-10-05 16:55:00
12:15 PM,50.0,33.8,54,29.81,10.0,SSW,17.3,25.3,N/A,,Clear,210,2013-10-05 17:15:00
12:35 PM,51.8,33.8,50,29.81,10.0,SW,16.1,27.6,N/A,,Clear,220,2013-10-05 17:35:00
12:55 PM,51.8,33.8,50,29.80,10.0,SSW,17.3,28.8,N/A,,Clear,200,2013-10-05 17:55:00
1:15 PM,50.0,33.8,54,29.79,10.0,SSW,20.7,27.6,N/A,,Clear,210,2013-10-05 18:15:00
1:35 PM,51.8,33.8,50,29.78,10.0,SW,19.6,25.3,N/A,,Scattered Clouds,230,2013-10-05 18:35:00
1:55 PM,51.8,33.8,50,29.77,10.0,SSW,18.4,27.6,N/A,,Scattered Clouds,210,2013-10-05 18:55:00
2:15 PM,53.6,33.8,47,29.77,10.0,SSW,23.0,29.9,N/A,,Scattered Clouds,210,2013-10-05 19:15:00
2:35 PM,53.6,33.8,47,29.76,10.0,SW,16.1,27.6,N/A,,Scattered Clouds,220,2013-10-05 19:35:00
2:55 PM,53.6,33.8,47,29.76,10.0,SW,20.7,32.2,N/A,,Mostly Cloudy,220,2013-10-05 19:55:00
3:15 PM,51.8,33.8,50,29.76,10.0,SW,16.1,26.5,N/A,,Overcast,220,2013-10-05 20:15:00
3:35 PM,50.0,32.0,50,29.77,10.0,SW,20.7,29.9,N/A,,Overcast,220,2013-10-05 20:35:00
3:55 PM,50.0,33.8,54,29.76,10.0,SW,20.7,29.9,N/A,,Overcast,220,2013-10-05 20:55:00
4:15 PM,50.0,32.0,50,29.75,10.0,SW,23.0,29.9,N/A,,Overcast,220,2013-10-05 21:15:00
4:35 PM,50.0,32.0,50,29.75,10.0,SW,21.9,31.1,N/A,,Overcast,220,2013-10-05 21:35:00
4:55 PM,48.2,33.8,58,29.74,10.0,SSW,17.3,26.5,N/A,,Overcast,210,2013-10-05 21:55:00
5:15 PM,48.2,33.8,58,29.74,10.0,SW,17.3,26.5,N/A,,Overcast,220,2013-10-05 22:15:00
5:35 PM,48.2,33.8,58,29.74,10.0,SW,18.4,27.6,N/A,,Overcast,220,2013-10-05 22:35:00
5:55 PM,48.2,33.8,58,29.75,10.0,SW,18.4,25.3,N/A,,Overcast,230,2013-10-05 22:55:00
6:15 PM,48.2,33.8,58,29.74,10.0,SW,16.1,-,N/A,,Overcast,220,2013-10-05 23:15:00
6:35 PM,46.4,33.8,62,29.75,10.0,SW,18.4,24.2,N/A,,Overcast,230,2013-10-05 23:35:00
6:55 PM,46.4,33.8,62,29.75,10.0,SW,15.0,-,N/A,,Overcast,230,2013-10-05 23:55:00
7:15 PM,46.4,33.8,62,29.75,10.0,SW,15.0,21.9,N/A,,Overcast,220,2013-10-06 00:15:00
7:35 PM,46.4,33.8,62,29.75,10.0,SW,12.7,20.7,N/A,,Overcast,220,2013-10-06 00:35:00
7:55 PM,44.6,35.6,71,29.75,10.0,SSW,13.8,19.6,N/A,,Overcast,210,2013-10-06 00:55:00
8:15 PM,44.6,35.6,71,29.75,10.0,SSW,9.2,15.0,N/A,,Overcast,210,2013-10-06 01:15:00
8:35 PM,44.6,35.6,71,29.75,10.0,SW,9.2,17.3,N/A,,Overcast,220,2013-10-06 01:35:00
8:55 PM,44.6,35.6,71,29.75,10.0,SW,16.1,23.0,N/A,,Overcast,230,2013-10-06 01:55:00
9:15 PM,44.6,35.6,71,29.75,10.0,SW,11.5,-,N/A,,Overcast,230,2013-10-06 02:15:00
9:35 PM,44.6,35.6,71,29.75,10.0,SW,15.0,21.9,N/A,,Overcast,230,2013-10-06 02:35:00
9:55 PM,42.8,35.6,76,29.74,10.0,SW,10.4,17.3,N/A,,Overcast,220,2013-10-06 02:55:00
10:15 PM,42.8,35.6,76,29.74,10.0,SSW,11.5,-,N/A,,Overcast,210,2013-10-06 03:15:00
10:35 PM,42.8,35.6,76,29.74,10.0,SSW,5.8,-,N/A,,Overcast,210,2013-10-06 03:35:00
10:55 PM,42.8,35.6,76,29.74,10.0,SW,6.9,13.8,N/A,,Overcast,230,2013-10-06 03:55:00
11:15 PM,41.0,35.6,81,29.73,10.0,SW,9.2,-,N/A,,Overcast,220,2013-10-06 04:15:00
11:35 PM,41.0,35.6,81,29.73,10.0,SW,9.2,-,N/A,,Overcast,230,2013-10-06 04:35:00
11:55 PM,41.0,37.4,87,29.73,10.0,WSW,8.1,-,N/A,,Overcast,250,2013-10-06 04:55:00